User: anonymous   Login
Location: Bittelbronn
(48.4454°N, 8.5870°E)
Time: 17:16:57
(UTC+00:00)
Language:

Okean 2 - Orbit

View from above orbital plane
View from above orbital plane
View from above satellite
View from above satellite

Ground track
Ground track

The orbit data is extracted from the following two-line orbital elements,

1 20510U 90018A   24195.97069096  .00006264  00000-0  41928-3 0  9998
2 20510  82.5111 204.1696 0009075 227.6890 149.6783 15.06733338847782
Epoch (UTC): 13 July 2024 23:17:47
Eccentricity: 0.0009075
inclination: 82.5111°
perigee height: 540 km
apogee height: 552 km
right ascension of ascending node: 204.1696°
argument of perigee: 227.6890°
revolutions per day: 15.06733338
mean anomaly at epoch: 149.6783°
orbit number at epoch: 84778

The dashed part of the orbit path shows where the satellite is in the earth's shadow,  

DLR